Voltar ao catálogo

ERS 2 DEB

AtivoSSO
NORAD 35392·DEBRIS·🇪🇺 EU

Lançado Apr 21, 1995 de Guiana Space Centre

Loading…

Próximas Passagens (próximas 24 horas)

TLE

AtualizadoSource: Space-Track

Época: Sep 13, 2026, 09:14 UTC

1 35392U 95021F   26256.38492592  .00001800  00000-0  42930-3 0  9992
2 35392  98.3227 227.4433 0002382 159.1247 201.0048 14.54911931982040

Acompanhe ERS 2 DEB em tempo real com AllMySat

Download on the App Store